FW6626 Weather Reports


Display with metric or nautical units.
time (UTC)temp
F
wind
direction
speed
MPH
gust
MPH
rain 1hr
in
rain 24hr
in
rain mn
in
humidity
%
barometer
mb
20260509061555 62 250 1.0 4.0 0.00 0.00 0.00 84 1015.2
20260509060054 62 253 0.0 3.0 0.00 0.00 0.00 84 1015.3
20260509054600 62 254 1.0 4.0 0.00 0.00 0.00 84 1015.3
20260509053058 62 0 0.0 2.0 0.00 0.00 0.00 84 1015.4
20260509051558 62 0 0.0 2.0 0.00 0.00 0.00 84 1015.3
20260509050052 62 0 0.0 2.0 0.00 0.00 0.00 84 1015.4
20260509044557 62 257 0.0 4.0 0.00 0.00 0.00 84 1015.4
20260509043050 62 0 0.0 2.0 0.00 0.00 0.00 84 1015.3
20260509041617 62 261 1.0 3.0 0.00 0.00 0.00 84 1015.2
20260509040055 62 0 1.0 3.0 0.00 0.00 0.00 84 1015.1
20260509034551 62 0 0.0 4.0 0.00 0.00 0.00 83 1015.1
20260509033053 62 0 1.0 4.0 0.00 0.00 0.00 83 1014.9
20260509031554 62 246 1.0 5.0 0.00 0.00 0.00 83 1014.7
20260509030053 62 216 2.0 8.0 0.00 0.00 0.00 83 1014.8
20260509024551 62 249 3.0 8.0 0.00 0.00 0.00 83 1014.6
20260509023106 62 0 1.0 9.0 0.00 0.00 0.00 83 1014.3
20260509021548 63 245 2.0 7.0 0.00 0.00 0.00 82 1014.4
20260509020055 63 250 3.0 7.0 0.00 0.00 0.00 82 1014.2
20260509014550 63 295 2.0 10.0 0.00 0.00 0.00 82 1014.1
20260509013054 64 298 3.0 9.0 0.00 0.00 0.00 81 1014.2
20260509011556 64 262 3.0 8.0 0.00 0.00 0.00 81 1014.2
20260509010053 65 296 5.0 11.0 0.00 0.00 0.00 79 1014.1
20260509004546 67 255 5.0 10.0 0.00 0.00 0.00 77 1014.2
20260509003051 67 253 5.0 11.0 0.00 0.00 0.00 76 1014.1
20260509001551 68 241 4.0 11.0 0.00 0.00 0.00 75 1014.0
20260509000052 68 236 4.0 11.0 0.00 0.00 0.00 76 1014.1
20260508234552 67 360 5.0 12.0 0.00 0.00 0.00 76 1014.2
20260508233048 68 292 5.0 14.0 0.00 0.00 0.00 75 1014.3
20260508231552 69 259 5.0 13.0 0.00 0.00 0.00 74 1014.5
20260508230053 68 275 7.0 14.0 0.00 0.00 0.00 75 1014.6
20260508224557 67 291 6.0 13.0 0.00 0.00 0.00 76 1014.8
20260508223051 68 261 7.0 14.0 0.00 0.00 0.00 75 1014.9
20260508221554 67 256 8.0 15.0 0.00 0.00 0.00 75 1015.0
20260508220055 67 248 8.0 18.0 0.00 0.00 0.00 76 1015.2
20260508214556 68 279 5.0 16.0 0.00 0.00 0.00 74 1015.2
20260508213054 69 306 6.0 15.0 0.00 0.00 0.00 74 1015.2
20260508211556 68 293 8.0 14.0 0.00 0.00 0.00 74 1015.2
20260508210056 69 248 6.0 14.0 0.00 0.00 0.00 73 1015.2
20260508204556 68 271 7.0 15.0 0.00 0.00 0.00 74 1015.3
20260508203051 68 288 7.0 15.0 0.00 0.00 0.00 76 1015.2
20260508201555 69 265 6.0 14.0 0.00 0.00 0.00 75 1015.4
20260508200117 69 291 7.0 13.0 0.00 0.00 0.00 74 1015.4
20260508194550 69 252 5.0 11.0 0.00 0.00 0.00 74 1015.6
20260508193132 69 263 5.0 12.0 0.00 0.00 0.00 74 1015.6
20260508191603 68 284 6.0 16.0 0.00 0.00 0.00 75 1016.0
20260508190054 69 281 6.0 11.0 0.00 0.00 0.00 73 1015.9
20260508184604 69 281 7.0 11.0 0.00 0.00 0.00 74 1016.1
20260508183113 69 262 4.0 9.0 0.00 0.00 0.00 72 1016.2
20260508181605 69 269 1.0 8.0 0.00 0.00 0.00 74 1016.3
20260508180056 73 178 1.0 5.0 0.00 0.00 0.00 67 1016.5
20260508174553 71 78 3.0 7.0 0.00 0.00 0.00 71 1016.7
20260508173053 68 34 0.0 3.0 0.00 0.00 0.00 75 1016.8
20260508171555 66 56 0.0 3.0 0.00 0.00 0.00 76 1016.9
20260508170057 65 32 1.0 5.0 0.00 0.00 0.00 78 1016.9
20260508164551 65 43 2.0 5.0 0.00 0.00 0.00 78 1017.0
20260508163050 64 352 0.0 3.0 0.00 0.00 0.00 80 1017.0
20260508161553 63 360 0.0 3.0 0.00 0.00 0.00 81 1017.0
20260508160056 63 0 1.0 4.0 0.00 0.00 0.00 81 1017.1
20260508154614 63 5 0.0 3.0 0.00 0.00 0.00 81 1017.0
20260508153055 63 5 0.0 3.0 0.00 0.00 0.00 82 1017.0
20260508151609 62 5 1.0 3.0 0.00 0.00 0.00 82 1017.1
20260508150059 62 0 0.0 3.0 0.00 0.00 0.00 82 1017.0
20260508144607 61 0 0.0 2.0 0.00 0.00 0.00 83 1017.0
20260508143107 61 345 1.0 3.0 0.00 0.00 0.00 83 1017.0
20260508141605 61 0 0.0 4.0 0.00 0.00 0.00 84 1017.0
20260508140055 61 77 0.0 3.0 0.00 0.00 0.00 84 1016.9
20260508134621 61 0 0.0 3.0 0.00 0.00 0.00 84 1016.7
20260508133101 61 96 1.0 4.0 0.00 0.00 0.00 84 1016.6
20260508131552 61 0 0.0 3.0 0.00 0.00 0.00 84 1016.5
20260508130050 61 103 2.0 4.0 0.00 0.00 0.00 84 1016.3
20260508124555 61 0 1.0 3.0 0.00 0.00 0.00 84 1016.3
20260508123056 61 122 0.0 3.0 0.00 0.00 0.00 84 1016.2
20260508121553 61 0 0.0 3.0 0.00 0.00 0.00 84 1016.2
20260508120058 61 0 1.0 4.0 0.00 0.00 0.00 84 1016.2
20260508114555 61 125 2.0 5.0 0.00 0.00 0.00 84 1016.1
20260508113055 61 123 0.0 3.0 0.00 0.00 0.00 84 1016.1
20260508111553 61 0 2.0 6.0 0.00 0.00 0.00 84 1016.1
20260508110052 61 97 2.0 7.0 0.00 0.00 0.00 84 1016.0
20260508104556 61 137 4.0 6.0 0.00 0.00 0.00 84 1015.9
20260508103101 61 111 1.0 4.0 0.00 0.00 0.00 85 1016.1
20260508101553 61 110 2.0 6.0 0.00 0.00 0.00 85 1016.1
20260508100112 61 148 1.0 4.0 0.00 0.00 0.00 85 1016.2
20260508094603 61 0 0.0 3.0 0.00 0.00 0.00 85 1016.2
20260508093050 61 173 0.0 6.0 0.00 0.00 0.00 84 1016.3
20260508091604 61 179 0.0 5.0 0.00 0.00 0.00 84 1016.3
20260508090115 61 154 3.0 6.0 0.00 0.00 0.00 84 1016.3
20260508084556 61 191 1.0 6.0 0.00 0.00 0.00 84 1016.4
20260508083055 61 160 2.0 5.0 0.00 0.00 0.00 84 1016.6
20260508081608 61 136 0.0 2.0 0.00 0.00 0.00 84 1016.7
20260508080057 61 136 1.0 7.0 0.00 0.00 0.00 84 1016.9
20260508074552 61 157 2.0 6.0 0.00 0.00 0.00 84 1016.9
20260508073106 61 148 3.0 8.0 0.00 0.00 0.00 84 1017.0
20260508071553 61 168 3.0 6.0 0.00 0.00 0.00 84 1017.1
20260508070054 61 0 0.0 4.0 0.00 0.00 0.00 84 1017.1
20260508064606 61 0 0.0 6.0 0.00 0.00 0.00 83 1017.1
20260508063106 61 214 2.0 6.0 0.00 0.00 0.00 83 1017.2